星链-30945 (STARLINK-30945 )

导读 | 星芒AI

STARLINK-30945 是 SpaceX 星链计划中的一颗低轨通信卫星,属于第三代星链卫星(v1.5 或 v2 版本)。它于 2024 年发射,旨在为全球用户提供高速互联网服务。该卫星采用先进推进系统,具备自主变轨和避碰能力,运行在约 550 公里的轨道高度。作为星链星座的一部分,它提升了网络覆盖与连接稳定性,支持偏远地区通信需求,并为未来星链扩展和应用(如星链+)奠定基础。

基本信息
目录编号:
58874
目录名称:
STARLINK-30945
国际标识:
2024-019X
轨道中心:
EARTH
卫星名称:
星链-30945
卫星全名:
星链-30945 (STARLINK-30945 )
卫星状态:
在轨 (已飞行690 天)
发射日期:
2024-01-29 UTC
国别 :
美国 (US)
星等 :
--
轨道信息
数据来源 国际轨道数据
星历时间: 2025-12-19T14:50:52+0800
13小时前
查看轨道信息
半长轴: 6861.107km
偏心率: 0.000052
轨道倾角: 43.000°
近地点辐角 232.698°
升交点赤经 343.158°
平近点角 127.382°
近地点: 482.613km
远地点: 483.327km
周期: 94.265分钟
每日圈数: 15.276067
详细信息
固有亮度:
5
最大亮度:
0.3
卫星平台:
Starlink v2.0 mini
覆盖范围:
全球
运营商:
太空探索技术公司
运营商所在国:
美国
制造商(研发单位):
太空探索技术公司
制造商所在国:
美国
使用方式:
暂无
卫星简介
星链(Starlink)计划是由太空探索技术公司(SpaceX)提出的一个巨型低轨卫星互联网星座项目,计划在2019年至2024年间在太空搭建由约1.2万颗卫星组成的“星链”网络,其中1584颗将部署在地球上空550千米处的近地轨道,并从2020年开始工作。该卫星仍在工作。
2D轨道图
3D轨道图
轨道高度分析图
轨道倾角分析图
轨道综合分析图
查看轨道综合分析图